Stations météo

Publicité
Paris-Montsouris, France (7156): Température de l'air & dewpoint: 13.12.2018 00:00:00 - 19.12.2018 00:00:00 (CET)Paris-Montsouris, France (7156): Température de l'air 5cm: 13.12.2018 00:00:00 - 19.12.2018 00:00:00 (CET)Paris-Montsouris, France (7156): Température de l'air -20cm & Température de l'air -100cm: 13.12.2018 00:00:00 - 19.12.2018 00:00:00 (CET)Paris-Montsouris, France (7156): Vitesse du vent & gusts: 13.12.2018 00:00:00 - 19.12.2018 00:00:00 (CET)Paris-Montsouris, France (7156): Direction du vent: 13.12.2018 00:00:00 - 19.12.2018 00:00:00 (CET)Paris-Montsouris, France (7156): reduced air pressure: 13.12.2018 00:00:00 - 19.12.2018 00:00:00 (CET)Paris-Montsouris, France (7156): visibility: 13.12.2018 00:00:00 - 19.12.2018 00:00:00 (CET)Paris-Montsouris, France (7156): Ensoleillement: 13.12.2018 00:00:00 - 19.12.2018 00:00:00 (CET)Paris-Montsouris, France (7156): Quantités de précipitations: 13.12.2018 00:00:00 - 19.12.2018 00:00:00 (CET)
Date & Time tt [°C] td [°C] tt 5cm [°C] tt -20cm [°C] tt -100cm [°C] ff [km/h] ff [knt] fx [km/h] fx [knt] dd ppp [hPa] vv [km] sd [min] rr [mm]
19.12.2018 00:00:00 - - - - - - - - - - - - - -
18.12.2018 23:00:00 8,2 5,0 6,4 6,4 9,6 17 9 39 21 SSW 1010,8 12 0 0,4
18.12.2018 22:00:00 8,3 2,3 6,7 6,4 9,6 16 9 32 17 S 1010,7 20 0 0,0
18.12.2018 21:00:00 7,5 2,4 6,2 6,4 9,6 11 6 27 14 S 1011,0 20 0 0,0
18.12.2018 20:00:00 7,5 2,6 6,1 6,4 9,6 14 8 29 15 S 1011,2 20 0 0,0
18.12.2018 19:00:00 7,5 3,0 6,2 6,4 9,6 17 9 32 17 SSE 1011,6 20 0 0,0
18.12.2018 18:00:00 7,6 3,1 6,5 6,4 9,6 10 6 34 18 SSE 1012,0 20 0 0,0
18.12.2018 17:00:00 7,6 3,3 6,7 6,3 9,6 13 7 29 15 SSE 1012,4 20 0 0,0
18.12.2018 16:00:00 7,9 3,5 7,3 6,2 9,6 13 7 25 13 SE 1013,5 20 0 0,0
18.12.2018 15:00:00 8,3 3,7 8,5 6,2 9,6 13 7 31 17 SE 1014,0 20 0 0,0
18.12.2018 14:00:00 8,7 3,5 8,9 6,1 9,6 12 7 36 19 SSE 1015,2 20 2 0,0
18.12.2018 13:00:00 8,2 3,0 8,2 6,1 9,6 17 9 41 22 S 1016,6 20 4 0,0
18.12.2018 12:00:00 7,5 3,4 7,7 6,0 9,6 18 10 35 19 S 1018,2 20 60 0,0
18.12.2018 11:00:00 6,1 3,3 4,9 6,0 9,6 15 8 29 16 S 1019,7 20 60 0,0
18.12.2018 10:00:00 4,7 3,2 3,1 6,1 9,7 16 9 38 20 SSE 1019,8 20 51 0,0
18.12.2018 09:00:00 4,3 3,4 2,6 6,1 9,7 15 8 29 15 S 1020,6 20 0 0,0
18.12.2018 08:00:00 4,6 3,7 3,8 6,1 9,7 12 6 31 17 S 1021,5 20 0 0,0
18.12.2018 07:00:00 5,9 5,3 5,6 6,0 9,7 13 7 24 13 SSE 1021,9 10 0 0,0
18.12.2018 06:00:00 5,9 5,5 5,6 6,0 9,7 11 6 32 17 S 1022,6 1,4 0 0,0
18.12.2018 05:00:00 6,3 5,7 6,1 6,0 9,7 13 7 33 18 S 1023,3 9 0 0,0
18.12.2018 04:00:00 6,6 6,0 6,2 5,9 9,7 11 6 28 15 SSW 1023,9 3,8 0 0,0
18.12.2018 03:00:00 6,6 5,9 6,3 5,9 9,7 11 6 26 14 S 1024,6 12 0 0,0
18.12.2018 02:00:00 6,5 5,8 5,9 5,9 9,7 11 6 26 14 S 1024,7 16 0 0,0
18.12.2018 01:00:00 6,4 5,7 5,0 5,9 9,7 12 6 22 12 SSW 1025,1 14 0 0,0
18.12.2018 00:00:00 6,2 5,5 4,4 5,9 9,7 10 5 26 14 SSW 1025,5 14 0 0,0
17.12.2018 23:00:00 6,3 5,6 4,5 5,9 9,7 10 5 23 12 S 1026,0 12 0 0,0
17.12.2018 22:00:00 6,5 5,8 4,8 6,0 9,7 10 5 23 12 SSW 1025,9 14 0 0,0
17.12.2018 21:00:00 6,4 5,7 4,1 6,0 9,8 12 7 22 12 SSW 1026,1 12 0 0,0
17.12.2018 20:00:00 6,4 5,7 3,8 6,0 9,7 10 5 22 12 SSW 1025,9 11 0 0,0
17.12.2018 19:00:00 6,4 5,7 3,3 6,0 9,7 11 6 23 12 SSW 1025,7 10 0 0,0
17.12.2018 18:00:00 6,5 5,4 5,5 6,0 9,8 11 6 22 12 S 1025,5 11 0 0,0
17.12.2018 17:00:00 6,7 5,5 5,7 6,0 9,8 10 5 23 12 SSW 1025,1 15 10 0,0
17.12.2018 16:00:00 7,2 5,7 6,3 5,9 9,8 8 4 23 12 SW 1024,5 19 35 0,0
17.12.2018 15:00:00 7,6 5,7 7,2 5,9 9,8 6 3 20 11 SW 1024,2 20 43 0,0
17.12.2018 14:00:00 8,2 5,5 8,0 5,8 9,8 12 6 23 12 SW 1023,8 20 60 0,0
17.12.2018 13:00:00 8,0 5,6 7,6 5,8 9,8 11 6 22 12 SW 1023,7 20 60 0,0
17.12.2018 12:00:00 7,4 5,2 7,1 5,7 9,8 9 5 19 10 SW 1023,4 20 60 0,0
17.12.2018 11:00:00 6,7 4,7 3,4 5,8 9,8 8 4 26 14 SW 1023,2 20 60 0,0
17.12.2018 10:00:00 5,4 4,5 2,2 5,9 9,9 7 4 14 8 WSW 1022,0 20 52 0,0
17.12.2018 09:00:00 5,3 3,9 2,6 5,9 9,8 6 3 29 16 W 1021,3 20 0 0,0
17.12.2018 08:00:00 5,4 4,2 1,5 5,9 9,9 12 7 27 15 W 1020,4 20 0 0,0
17.12.2018 07:00:00 5,1 4,1 1,8 6,0 9,9 8 4 16 9 SW 1019,3 20 0 0,2
17.12.2018 06:00:00 5,7 4,3 2,3 6,0 9,9 5 3 26 14 W 1017,9 20 0 0,0
17.12.2018 05:00:00 6,2 4,8 3,3 6,0 9,9 12 6 27 14 W 1017,0 20 0 0,0
17.12.2018 04:00:00 6,4 5,2 4,0 6,0 9,9 11 6 29 16 W 1016,3 20 0 0,0
17.12.2018 03:00:00 6,6 5,5 4,4 6,0 9,9 11 6 24 13 W 1015,4 20 0 0,0
17.12.2018 02:00:00 6,8 5,7 5,3 6,0 9,9 7 4 23 13 W 1014,5 20 0 0,0
17.12.2018 01:00:00 7,0 5,9 6,4 5,9 9,9 8 4 29 15 WSW 1013,8 19 0 0,8
17.12.2018 00:00:00 7,5 6,6 6,8 5,9 10,0 15 8 33 18 WSW 1013,3 11 0 1,2
16.12.2018 23:00:00 7,3 6,6 6,8 5,8 10,0 6 3 26 14 WSW 1012,7 6 0 0,2
16.12.2018 22:00:00 7,3 6,6 6,9 5,8 10,0 14 8 29 16 S 1012,1 14 0 0,0
16.12.2018 21:00:00 7,3 6,6 6,1 5,8 10,0 12 7 29 15 S 1012,0 20 0 0,0
16.12.2018 20:00:00 7,3 6,6 6,3 5,7 10,0 11 6 22 12 S 1011,9 16 0 0,0
16.12.2018 19:00:00 7,2 6,6 6,9 5,6 10,0 9 5 28 15 S 1012,0 10 0 0,0
16.12.2018 18:00:00 7,2 6,8 6,9 5,6 10,0 13 7 29 15 SSW 1011,7 7 0 0,0
16.12.2018 17:00:00 7,1 6,7 6,7 5,5 10,0 12 6 26 14 S 1011,5 9 0 0,0
16.12.2018 16:00:00 6,7 6,3 6,5 5,4 10,1 7 4 17 9 S 1011,6 2,4 0 0,0
16.12.2018 15:00:00 6,3 5,9 6,4 5,3 10,1 9 5 26 14 S 1011,8 3,3 0 0,0
16.12.2018 14:00:00 6,4 6,0 6,4 5,2 10,1 9 5 25 13 SSW 1011,9 8 0 0,0
16.12.2018 13:00:00 5,9 5,5 5,8 5,1 10,1 14 8 29 15 SW 1012,4 10 0 0,0
16.12.2018 12:00:00 5,4 5,1 5,6 5,0 10,1 9 5 26 14 SSW 1013,0 3,1 0 0,0
16.12.2018 11:00:00 5,1 4,8 4,8 5,0 10,1 10 6 18 10 SW 1013,5 2,9 0 0,0
16.12.2018 10:00:00 4,6 4,3 4,0 4,9 10,1 3 1 16 9 S 1013,1 1,4 0 0,0
16.12.2018 09:00:00 4,1 3,8 2,9 4,9 10,1 5 3 17 9 WSW 1012,6 2,5 0 0,0
16.12.2018 08:00:00 3,3 3,0 1,7 4,9 10,1 5 3 21 11 WSW 1012,5 3,9 0 0,0
16.12.2018 07:00:00 2,8 2,5 0,8 4,9 10,2 6 3 14 7 SSW 1012,3 4,0 0 0,0
16.12.2018 06:00:00 2,4 2,0 0,4 4,9 10,2 8 5 13 7 SSE 1012,1 7 0 0,0
16.12.2018 05:00:00 3,1 2,7 1,0 4,9 10,2 7 4 14 7 S 1012,0 3,3 0 0,0
16.12.2018 04:00:00 3,7 3,3 2,2 4,9 10,2 5 3 13 7 SW 1011,6 2,3 0 0,0
16.12.2018 03:00:00 3,7 3,3 2,9 4,8 10,2 5 3 11 6 SW 1011,3 4,5 0 0,0
16.12.2018 02:00:00 3,1 2,7 2,6 4,8 10,3 4 2 11 6 S 1010,9 2,8 0 0,0
16.12.2018 01:00:00 2,7 2,1 2,3 4,8 10,3 6 4 21 12 SSW 1010,7 5 0 0,2
16.12.2018 00:00:00 2,5 1,9 1,9 4,8 10,3 8 4 21 12 S 1010,6 9 0 0,0
15.12.2018 23:00:00 2,1 1,5 1,3 4,8 10,3 8 4 34 18 SSW 1010,9 3,3 0 0,0
15.12.2018 22:00:00 1,5 0,9 0,8 4,9 10,3 16 9 35 19 SSE 1010,6 4,3 0 0,0
15.12.2018 21:00:00 1,1 0,4 0,5 4,9 10,3 16 9 42 23 SSE 1011,6 2,3 0 0,0
15.12.2018 20:00:00 0,9 0,0 0,3 4,9 10,3 18 10 41 22 SSE 1013,0 2,7 0 0,0
15.12.2018 19:00:00 0,8 -0,5 0,2 4,9 10,3 14 8 47 25 S 1014,7 3,9 0 0,0
15.12.2018 18:00:00 0,8 -0,7 0,1 4,9 10,3 21 11 40 21 SSE 1015,1 3,5 0 0,0
15.12.2018 17:00:00 1,0 -1,2 0,1 4,8 10,4 21 11 52 28 SSE 1016,0 5 0 0,0
15.12.2018 16:00:00 1,2 -1,9 0,3 4,8 10,4 16 9 39 21 SSE 1017,4 12 0 0,0
15.12.2018 15:00:00 1,6 -2,0 1,0 4,7 10,4 13 7 43 23 SSE 1018,5 10 0 0,2
15.12.2018 14:00:00 1,6 -3,7 1,7 4,7 10,4 19 11 39 21 SSE 1019,6 18 0 0,0
15.12.2018 13:00:00 1,3 -4,2 1,6 4,7 10,4 17 9 38 21 SSE 1020,6 17 0 0,0
15.12.2018 12:00:00 1,1 -4,2 1,3 4,7 10,4 18 10 32 18 S 1021,8 17 0 0,0
15.12.2018 11:00:00 0,9 -4,2 0,5 4,7 10,4 14 8 34 18 SSE 1022,6 17 0 0,0
15.12.2018 10:00:00 0,4 -4,3 -0,8 4,8 10,4 16 8 32 17 SSE 1022,6 18 8 0,0
15.12.2018 09:00:00 -0,3 -4,6 -2,3 4,9 10,5 12 7 27 15 SSE 1022,8 17 0 0,0
15.12.2018 08:00:00 -0,8 -4,9 -2,7 4,9 10,5 10 6 24 13 SE 1023,0 17 0 0,0
15.12.2018 07:00:00 -0,7 -4,9 -2,4 5,0 10,5 9 5 27 15 SE 1023,3 18 0 0,0
15.12.2018 06:00:00 -0,6 -5,2 -3,9 5,0 10,5 14 8 24 13 SE 1023,5 18 0 0,0
15.12.2018 05:00:00 -0,6 -5,2 -3,7 5,0 10,5 8 4 17 9 SE 1023,9 19 0 0,0
15.12.2018 04:00:00 0,0 -5,4 -2,2 5,0 10,5 9 5 23 12 SSE 1024,4 19 0 0,0
15.12.2018 03:00:00 0,5 -5,3 -1,1 5,0 10,5 13 7 24 13 SSE 1024,2 20 0 0,0
15.12.2018 02:00:00 0,3 -5,5 -1,3 5,0 10,5 8 4 16 9 SE 1024,4 20 0 0,0
15.12.2018 01:00:00 0,5 -5,7 -0,4 5,0 10,6 11 6 22 12 ESE 1024,7 20 0 0,0
15.12.2018 00:00:00 0,4 -5,6 -0,5 5,0 10,5 5 3 20 11 S 1025,0 20 0 0,0
14.12.2018 23:00:00 0,4 -5,8 -0,4 5,0 10,6 6 4 18 10 S 1025,5 20 0 0,0
14.12.2018 22:00:00 0,3 -5,9 -0,5 5,1 10,6 10 5 19 10 SE 1025,4 20 0 0,0
14.12.2018 21:00:00 0,3 -5,9 -1,2 5,1 10,6 11 6 34 18 SE 1024,5 20 0 0,0
14.12.2018 20:00:00 0,7 -5,8 -0,4 5,1 10,6 10 5 23 13 E 1024,4 20 0 0,0
14.12.2018 19:00:00 0,9 -5,6 -0,5 5,1 10,6 10 6 21 11 SE 1024,5 20 0 0,0
14.12.2018 18:00:00 0,9 -5,6 -0,8 5,1 10,6 9 5 22 12 ESE 1024,0 20 0 0,0
14.12.2018 17:00:00 1,4 -5,7 0,4 5,1 10,6 9 5 22 12 ESE 1024,0 20 0 0,0
14.12.2018 16:00:00 1,8 -5,4 1,5 5,1 10,7 8 4 18 10 E 1023,2 20 0 0,0
14.12.2018 15:00:00 2,0 -6,1 2,2 5,0 10,6 5 3 21 11 ENE 1022,5 20 0 0,0
14.12.2018 14:00:00 2,7 -5,9 2,7 5,0 10,6 5 3 25 13 ESE 1022,2 20 54 0,0
14.12.2018 13:00:00 2,2 -4,8 2,0 5,1 10,6 9 5 33 18 E 1021,4 20 60 0,0
14.12.2018 12:00:00 1,2 -4,9 1,4 5,1 10,7 14 8 30 16 ENE 1021,4 19 60 0,0
14.12.2018 11:00:00 0,5 -4,9 -1,5 5,2 10,7 11 6 24 13 ENE 1022,1 20 60 0,0
14.12.2018 10:00:00 -0,9 -4,6 -3,4 5,3 10,7 10 5 25 13 NE 1022,0 19 54 0,0
14.12.2018 09:00:00 -1,3 -5,0 -4,4 5,4 10,7 9 5 25 14 NE 1021,5 19 0 0,0
14.12.2018 08:00:00 -1,5 -5,2 -4,0 5,5 10,7 11 6 23 12 NE 1020,5 20 0 0,0
14.12.2018 07:00:00 -1,3 -5,0 -3,9 5,5 10,7 10 5 22 12 NE 1019,9 20 0 0,0
14.12.2018 06:00:00 -1,3 -5,0 -4,2 5,6 10,7 10 5 30 16 NE 1019,5 20 0 0,0
14.12.2018 05:00:00 -0,6 -4,7 -3,7 5,7 10,7 16 8 32 17 ENE 1018,9 20 0 0,0
14.12.2018 04:00:00 -0,5 -4,6 -3,3 5,7 10,7 15 8 28 15 ENE 1018,8 20 0 0,0
14.12.2018 03:00:00 -0,2 -4,5 -3,4 5,8 10,7 15 8 29 16 ENE 1018,9 20 0 0,0
14.12.2018 02:00:00 -0,4 -4,3 -3,4 5,9 10,8 10 6 25 13 ENE 1018,6 20 0 0,0
14.12.2018 01:00:00 -0,4 -4,3 -2,9 5,9 10,7 9 5 25 14 ENE 1018,5 20 0 0,0
14.12.2018 00:00:00 0,2 -3,9 -2,4 6,0 10,7 12 6 29 16 ENE 1017,9 20 0 0,0
13.12.2018 23:00:00 0,5 -3,8 -1,8 6,0 10,8 13 7 30 16 E 1017,4 20 0 0,0
13.12.2018 22:00:00 0,9 -3,6 -1,2 6,1 10,8 14 8 33 18 E 1017,4 20 0 0,0
13.12.2018 21:00:00 1,0 -3,5 -1,2 6,2 10,8 12 7 37 20 E 1017,0 20 0 0,0
13.12.2018 20:00:00 1,5 -3,2 -0,4 6,2 10,8 14 8 35 19 E 1016,3 20 0 0,0
13.12.2018 19:00:00 1,8 -2,9 -0,4 6,2 10,8 16 9 42 23 E 1015,8 20 0 0,0
13.12.2018 18:00:00 2,3 -3,0 0,3 6,3 10,8 14 7 37 20 E 1015,3 20 0 0,0
13.12.2018 17:00:00 2,4 -2,7 -0,1 6,3 10,8 11 6 41 22 E 1015,1 20 0 0,0
13.12.2018 16:00:00 3,3 -2,5 2,1 6,3 10,8 16 9 44 24 E 1014,4 20 47 0,0
13.12.2018 15:00:00 3,6 -2,6 2,7 6,3 10,8 20 11 40 22 E 1013,7 20 60 0,0
13.12.2018 14:00:00 4,0 -2,2 4,0 6,2 10,8 14 8 38 21 E 1013,8 20 57 0,0
13.12.2018 13:00:00 3,6 -2,0 3,2 6,2 10,9 17 9 39 21 E 1014,2 20 60 0,0
13.12.2018 12:00:00 2,7 -1,8 2,9 6,3 10,9 15 8 30 16 E 1014,8 20 56 0,2
13.12.2018 11:00:00 1,7 -1,4 0,6 6,3 10,9 12 6 32 17 ESE 1015,2 20 53 0,0
13.12.2018 10:00:00 0,9 -1,3 -0,6 6,4 10,9 13 7 32 17 E 1015,1 19 43 0,0
13.12.2018 09:00:00 0,7 -1,2 -0,6 6,4 10,9 13 7 35 19 E 1015,1 16 0 0,0
13.12.2018 08:00:00 0,8 -1,1 0,2 6,5 10,9 11 6 38 20 ESE 1015,3 16 0 0,0
13.12.2018 07:00:00 0,7 -0,9 -0,8 6,5 10,9 9 5 24 13 ESE 1015,5 12 0 0,0
13.12.2018 06:00:00 0,3 -1,0 -1,4 6,6 10,9 8 5 27 15 ESE 1016,1 10 0 0,0
13.12.2018 05:00:00 0,5 -0,8 -1,2 6,6 10,9 13 7 31 17 ESE 1016,6 8 0 0,0
13.12.2018 04:00:00 0,2 -1,2 -1,2 6,7 10,9 12 7 30 16 ESE 1017,0 8 0 0,0
13.12.2018 03:00:00 0,3 -1,1 -1,2 6,8 10,9 15 8 29 16 ESE 1017,9 9 0 0,0
13.12.2018 02:00:00 0,4 -1,2 -1,6 6,8 10,9 11 6 28 15 ESE 1017,8 10 0 0,0
13.12.2018 01:00:00 0,4 -1,0 -1,3 6,9 10,9 14 7 31 17 SE 1018,8 9 0 0,0
13.12.2018 00:00:00 0,8 -0,8 -0,7 6,9 10,9 11 6 29 15 SE 1019,3 10 0 0,0

tt = Température de l'air
td = dewpoint
tt 5cm = Température de l'air 5cm
tt -20cm = Température de l'air -20cm
tt -100cm = Température de l'air -100cm
ff = Vitesse du vent
fx = gusts
dd = Direction du vent
ppp = reduced air pressure
vv = visibility
sd = Ensoleillement
rr = Quantités de précipitations

stations d'obs. à proximité